Flag for United Kingdom Weather past 2 weeks in King's Lynn, England, United Kingdom

Now
45 °F

Rain. Low clouds.


Feels Like: 41 °F
Forecast: 37 / 52 °F
Wind: 6 mph from Northeast

Location: Marham

Current Time: Apr 26, 2015 at 1:15:04 AM

Latest Report: Apr 25, 2015 at 11:50 PM


Visibility: N/A

Pressure: 29.74 "Hg

Humidity: 93%

Dew point: 43 °F

Location of King's LynnLocation

Historic Weather in King's Lynn — Graph

°F

King's Lynn temperature yesterday

Maximum temperature yesterday: 64 °F (at 2:50 PM)
Minimum temperature yesterday: 45 °F (at 9:50 PM)
Average temperature yesterday: 54 °F

Past Weeks' High & Low Weather Summary

 TemperatureHumidityPressure
High68 °F (Apr 15, 12:50 PM)100% (Apr 12, 5:50 AM)30.57 "Hg (Apr 12, 5:50 AM)
Low30 °F (Apr 20, 3:50 AM)33% (Apr 11, 3:50 PM)29.59 "Hg (Apr 25, 2:50 PM)
Average49 °F74%30.18 "Hg
* Reported Apr 10 11:50 PM — Apr 25 11:50 PM, King's Lynn, Weather by CustomWeather, © 2015

Note: Actual official high and low records may vary slightly from our data, if they occured in-between our weather recording intervals... More about our weather records

Advertising

King's Lynn weather history for previous 24 hours

 ConditionsComfort  
Time TempWeatherWind HumidityBarometerVisibility
11:50 PM
Sat, Apr 25
45 °FRain. Low clouds.6 mph93%29.74 "HgN/A
10:50 PM45 °FDrizzle. Low clouds.13 mph93%29.71 "HgN/A
9:50 PM45 °FPassing clouds.15 mph100%29.71 "HgN/A
8:50 PM46 °FRain showers. Broken clouds.14 mph93%29.68 "Hg1 mi
7:50 PM50 °FPartly sunny.14 mph88%29.65 "HgN/A
6:50 PM61 °FPartly sunny.14 mph55%29.62 "HgN/A
5:50 PM63 °FPartly sunny.18 mph49%29.62 "HgN/A
4:50 PM63 °FPartly sunny.18 mph52%29.59 "HgN/A
3:50 PM63 °FPartly sunny.20 mph52%29.59 "HgN/A
2:50 PM64 °FPartly sunny.20 mph49%29.59 "HgN/A
1:50 PM61 °FOvercast.18 mph59%29.62 "HgN/A
12:50 PM59 °FPartly sunny.20 mph63%29.62 "HgN/A
11:50 AM59 °FScattered clouds.17 mph72%29.62 "HgN/A
10:50 AM55 °FBroken clouds.12 mph82%29.62 "HgN/A
9:50 AM54 °FPartly sunny.13 mph88%29.62 "HgN/A
8:50 AM54 °FBroken clouds.14 mph94%29.65 "HgN/A
7:50 AM54 °FBroken clouds.10 mph94%29.65 "HgN/A
6:50 AM52 °FPartly sunny.10 mph94%29.65 "HgN/A
5:50 AM52 °FPassing clouds.10 mph94%29.65 "HgN/A
4:50 AM52 °FPassing clouds.12 mph100%29.65 "HgN/A
3:50 AM52 °FPassing clouds.14 mph100%29.65 "HgN/A
2:50 AM52 °FLight rain. Passing clouds.12 mph94%29.65 "HgN/A
1:50 AM52 °FPassing clouds.13 mph94%29.68 "HgN/A
Weather by CustomWeather, © 2015

See weather overviewHow to use our weather pages